Lawrence, KS

7:24 AM CDT on August 24, 2016 (GMT -0500)
Lawrence Municipal

Weather History for KLWC - August, 2013

Change the Weather History Date:

Saturday, August 3, 2013

  Actual Average Record
Temperature  
Mean Temperature 81 °F 79 °F  
Max Temperature 88 °F 90 °F 100 °F (2002)
Min Temperature 73 °F 67 °F 63 °F (2014)
Degree Days  
Heating Degree Days 0 0  
Month to date heating degree days 0 0  
Since 1 June heating degree days 13 9  
Since 1 July heating degree days 0 1  
Cooling Degree Days 16 14  
Month to date cooling degree days 41 42  
Year to date cooling degree days 884 850  
Since 1 June cooling degree days 757 731  
Growing Degree Days 30 (Base 50)    
Moisture  
Dew Point 70 °F    
Average Humidity 71    
Maximum Humidity 87    
Minimum Humidity 55    
Precipitation  
Precipitation 0.01 in 0.09 in 1.31 in (2014)
Month to date precipitation 0.50 0.28  
Year to date precipitation 17.53 23.81  
Sea Level Pressure  
Sea Level Pressure 30.03 in    
Wind  
Wind Speed 6 mph (ENE)    
Max Wind Speed 12 mph    
Max Gust Speed 17 mph    
Visibility 10 miles    
Events Rain    
T = Trace of Precipitation, MM = Missing Value Source: NWS Daily Summary

Daily Weather History Graph

Daily Weather History Graph

Search for Another Location

Airport or City:

Trip Planner

Search our weather history database for the weather conditions in past years. The results will help you decide how hot, cold, wet, or windy it might be!

Date:

Astronomy

Aug. 03, 2013 Rise Set
Actual Time 6:23 AM CDT 8:29 PM CDT
Civil Twilight 5:54 AM CDT 8:59 PM CDT
Nautical Twilight 5:17 AM CDT 9:35 PM CDT
Astronomical Twilight 4:38 AM CDT 10:14 PM CDT
Moon 3:34 AM CDT (8/3) 6:12 PM CDT (8/3)
Length of Visible Light 15h 05m
Length of Day
14h 06m
Waning Crescent, 9% of the Moon is Illuminated
Aug 3
Waning Crescent
Aug 6
New
Aug 14
First Quarter
Aug 20
Full
Aug 28
Last Quarter

Hourly Weather History & Observations

Time (CDT) Temp. Heat Index Dew Point Humidity Pressure Visibility Wind Dir Wind Speed Gust Speed Precip Events Conditions
12:52 AM 77.0 °F - 72.0 °F 84% 29.92 in 10.0 mi NE 6.9 mph - N/A   Partly Cloudy
1:52 AM 75.9 °F - 72.0 °F 87% 29.91 in 10.0 mi ENE 6.9 mph - N/A   Clear
2:47 AM 77.0 °F - 71.6 °F 83% 29.96 in 9.0 mi West 6.9 mph - 0.01 in Rain Light Rain
2:52 AM 77.0 °F - 72.0 °F 84% 29.94 in 8.0 mi Variable 4.6 mph - 0.01 in Rain Light Rain
3:18 AM 75.2 °F - 71.6 °F 89% 29.96 in 9.0 mi NE 6.9 mph - 0.00 in Rain Light Rain
3:52 AM 75.9 °F - 72.0 °F 87% 29.93 in 7.0 mi NNE 8.1 mph - 0.00 in   Mostly Cloudy
4:00 AM 75.2 °F - 71.6 °F 89% 29.95 in 7.0 mi North 5.8 mph - N/A   Scattered Clouds
4:52 AM 75.0 °F - 70.0 °F 84% 29.93 in 10.0 mi NE 6.9 mph 17.3 mph N/A   Partly Cloudy
5:52 AM 73.9 °F - 70.0 °F 87% 29.97 in 10.0 mi ENE 8.1 mph - N/A   Overcast
6:52 AM 73.0 °F - 69.1 °F 87% 29.99 in 10.0 mi East 6.9 mph - N/A   Overcast
7:52 AM 73.0 °F - 68.0 °F 84% 30.01 in 10.0 mi Variable 5.8 mph - N/A   Partly Cloudy
8:52 AM 75.0 °F - 69.1 °F 82% 30.03 in 10.0 mi ENE 6.9 mph - N/A   Mostly Cloudy
9:12 AM 75.2 °F - 69.8 °F 83% 30.05 in 10.0 mi ENE 9.2 mph - N/A   Mostly Cloudy
9:21 AM 75.2 °F - 69.8 °F 83% 30.06 in 10.0 mi NE 8.1 mph - N/A   Scattered Clouds
9:37 AM 75.2 °F - 68.0 °F 78% 30.06 in 10.0 mi ENE 6.9 mph - N/A   Mostly Cloudy
9:52 AM 75.0 °F - 68.0 °F 79% 30.05 in 9.0 mi NE 6.9 mph - N/A   Overcast
10:35 AM 75.2 °F - 69.8 °F 83% 30.08 in 9.0 mi ENE 6.9 mph - N/A   Overcast
10:52 AM 77.0 °F - 70.0 °F 79% 30.06 in 9.0 mi East 8.1 mph - N/A   Mostly Cloudy
11:07 AM 78.8 °F - 69.8 °F 74% 30.08 in 9.0 mi ENE 8.1 mph - N/A   Mostly Cloudy
11:52 AM 80.1 °F 83.2 °F 70.0 °F 71% 30.06 in 9.0 mi East 6.9 mph - N/A   Overcast
12:52 PM 82.9 °F 87.5 °F 71.1 °F 67% 30.06 in 10.0 mi Variable 6.9 mph - N/A   Mostly Cloudy
1:27 PM 82.4 °F 86.3 °F 69.8 °F 66% 30.09 in 10.0 mi ENE 9.2 mph - N/A   Mostly Cloudy
1:52 PM 84.0 °F 88.4 °F 70.0 °F 63% 30.06 in 10.0 mi ESE 8.1 mph - N/A   Mostly Cloudy
2:03 PM 82.4 °F 86.3 °F 69.8 °F 66% 30.09 in 10.0 mi East 4.6 mph - N/A   Mostly Cloudy
2:44 PM 84.2 °F 88.4 °F 69.8 °F 62% 30.08 in 10.0 mi East 8.1 mph - N/A   Scattered Clouds
2:52 PM 86.0 °F 90.7 °F 70.0 °F 59% 30.05 in 10.0 mi Variable 4.6 mph - N/A   Scattered Clouds
3:52 PM 87.1 °F 92.0 °F 70.0 °F 57% 30.05 in 10.0 mi ENE 9.2 mph - N/A   Scattered Clouds
4:52 PM 84.0 °F 87.0 °F 68.0 °F 58% 30.05 in 10.0 mi ENE 8.1 mph - N/A   Overcast
5:52 PM 82.9 °F 86.5 °F 69.1 °F 63% 30.04 in 10.0 mi East 5.8 mph - N/A   Overcast
6:52 PM 84.0 °F 88.4 °F 70.0 °F 63% 30.04 in 10.0 mi East 4.6 mph - N/A   Mostly Cloudy
7:52 PM 81.0 °F 84.4 °F 70.0 °F 69% 30.04 in 10.0 mi East 4.6 mph - N/A   Clear
8:52 PM 77.0 °F - 70.0 °F 79% 30.04 in 10.0 mi East 3.5 mph - N/A   Clear
9:52 PM 75.0 °F - 70.0 °F 84% 30.08 in 10.0 mi ENE 3.5 mph - N/A   Clear
10:52 PM 77.0 °F - 70.0 °F 79% 30.10 in 10.0 mi ENE 4.6 mph - N/A   Overcast
11:52 PM 75.9 °F - 71.1 °F 85% 30.11 in 10.0 mi ENE 3.5 mph - N/A   Overcast